TimeCST,TemperatureF,Dew PointF,Humidity,Sea Level PressureIn,VisibilityMPH,Wind Direction,Wind SpeedMPH,Gust SpeedMPH,PrecipitationIn,Events,Conditions,WindDirDegrees,DateUTC
1:15 AM,31.3,24.4,76,30.40,10.0,SSW,4.6,-,N/A,,Clear,200,2013-02-16 07:15:00
1:35 AM,31.1,24.1,75,30.40,10.0,SSW,4.6,-,N/A,,Clear,210,2013-02-16 07:35:00
1:55 AM,30.7,23.9,76,30.40,10.0,SW,5.8,-,N/A,,Clear,220,2013-02-16 07:55:00
2:15 AM,29.8,23.4,77,30.40,10.0,Calm,Calm,-,N/A,,Clear,0,2013-02-16 08:15:00
2:35 AM,29.8,23.2,76,30.40,10.0,WSW,4.6,-,N/A,,Clear,250,2013-02-16 08:35:00
2:55 AM,27.9,22.6,81,30.40,10.0,WSW,6.9,-,N/A,,Clear,250,2013-02-16 08:55:00
3:15 AM,28.2,23.0,81,30.40,10.0,WSW,4.6,-,N/A,,Clear,250,2013-02-16 09:15:00
3:35 AM,28.0,22.8,81,30.40,10.0,West,4.6,-,N/A,,Clear,260,2013-02-16 09:35:00
3:55 AM,27.5,22.6,82,30.40,10.0,Calm,Calm,-,N/A,,Clear,0,2013-02-16 09:55:00
4:15 AM,27.7,22.6,81,30.39,10.0,Calm,Calm,-,N/A,,Clear,0,2013-02-16 10:15:00
4:35 AM,26.6,21.2,80,30.40,10.0,Calm,Calm,-,N/A,,Clear,0,2013-02-16 10:35:00
4:55 AM,25.2,20.3,82,30.40,10.0,Calm,Calm,-,N/A,,Clear,0,2013-02-16 10:55:00
5:15 AM,25.9,21.4,83,30.40,10.0,Calm,Calm,-,N/A,,Clear,0,2013-02-16 11:15:00
5:35 AM,24.1,19.9,84,30.40,10.0,Calm,Calm,-,N/A,,Clear,0,2013-02-16 11:35:00
5:55 AM,24.4,20.3,84,30.40,10.0,Calm,Calm,-,N/A,,Clear,0,2013-02-16 11:55:00
6:15 AM,24.3,20.3,85,30.40,10.0,Calm,Calm,-,N/A,,Clear,0,2013-02-16 12:15:00
6:35 AM,23.2,19.4,85,30.40,10.0,SSW,3.5,-,N/A,,Clear,200,2013-02-16 12:35:00
6:55 AM,23.4,20.1,87,30.40,10.0,SSW,5.8,-,N/A,,Clear,200,2013-02-16 12:55:00
7:15 AM,22.6,19.4,87,30.41,10.0,SW,5.8,-,N/A,,Clear,220,2013-02-16 13:15:00
7:35 AM,22.6,19.4,87,30.41,10.0,WSW,3.5,-,N/A,,Clear,240,2013-02-16 13:35:00
7:55 AM,22.8,19.4,87,30.42,10.0,WSW,3.5,-,N/A,,Clear,240,2013-02-16 13:55:00
8:15 AM,24.1,20.1,85,30.42,10.0,SW,4.6,-,N/A,,Clear,230,2013-02-16 14:15:00
8:35 AM,28.0,22.8,81,30.43,10.0,SW,3.5,-,N/A,,Clear,230,2013-02-16 14:35:00
8:55 AM,30.9,23.9,75,30.43,10.0,SW,4.6,-,N/A,,Clear,220,2013-02-16 14:55:00
9:15 AM,33.4,24.8,71,30.43,10.0,SSW,4.6,-,N/A,,Clear,210,2013-02-16 15:15:00
9:35 AM,36.1,25.7,66,30.43,10.0,SW,5.8,-,N/A,,Clear,230,2013-02-16 15:35:00
12:15 PM,54.0,26.6,35,30.37,10.0,Calm,Calm,-,N/A,,Clear,0,2013-02-16 18:15:00
12:35 PM,55.9,27.1,33,30.36,10.0,SSW,4.6,-,N/A,,Clear,210,2013-02-16 18:35:00
12:55 PM,57.4,27.1,31,30.34,10.0,SSW,4.6,-,N/A,,Clear,200,2013-02-16 18:55:00
1:15 PM,59.2,26.4,29,30.32,10.0,SW,4.6,-,N/A,,Clear,220,2013-02-16 19:15:00
1:35 PM,61.0,26.2,27,30.30,10.0,WSW,3.5,-,N/A,,Clear,240,2013-02-16 19:35:00
1:55 PM,61.9,25.5,25,30.28,10.0,South,3.5,-,N/A,,Clear,180,2013-02-16 19:55:00
2:15 PM,63.0,23.7,22,30.26,10.0,Calm,Calm,-,N/A,,Clear,0,2013-02-16 20:15:00
2:35 PM,63.7,22.3,21,30.24,10.0,Calm,Calm,-,N/A,,Clear,0,2013-02-16 20:35:00
2:55 PM,65.7,17.6,16,30.23,10.0,West,10.4,-,N/A,,Clear,270,2013-02-16 20:55:00
3:15 PM,66.6,17.4,15,30.22,10.0,West,9.2,17.3,N/A,,Clear,260,2013-02-16 21:15:00
3:35 PM,67.8,16.3,14,30.21,10.0,SW,9.2,17.3,N/A,,Clear,230,2013-02-16 21:35:00
3:55 PM,68.0,16.2,14,30.19,10.0,WSW,11.5,21.9,N/A,,Clear,250,2013-02-16 21:55:00
4:15 PM,68.0,16.0,14,30.19,10.0,WSW,11.5,18.4,N/A,,Clear,250,2013-02-16 22:15:00
4:35 PM,67.8,16.2,14,30.18,10.0,WSW,11.5,19.6,N/A,,Clear,250,2013-02-16 22:35:00
4:55 PM,67.6,15.6,14,30.17,10.0,WSW,13.8,18.4,N/A,,Clear,250,2013-02-16 22:55:00
5:15 PM,67.5,15.3,13,30.16,10.0,WSW,11.5,17.3,N/A,,Clear,250,2013-02-16 23:15:00
5:35 PM,66.7,15.6,14,30.15,10.0,WSW,13.8,-,N/A,,Clear,240,2013-02-16 23:35:00
5:55 PM,66.0,15.6,14,30.15,10.0,WSW,12.7,-,N/A,,Clear,240,2013-02-16 23:55:00
6:15 PM,64.2,15.3,15,30.14,10.0,WSW,9.2,-,N/A,,Clear,250,2013-02-17 00:15:00
6:35 PM,60.6,14.4,16,30.14,10.0,West,8.1,-,N/A,,Clear,260,2013-02-17 00:35:00
7:15 PM,53.4,12.2,19,30.14,10.0,WSW,9.2,-,N/A,,Clear,240,2013-02-17 01:15:00
7:55 PM,57.2,12.2,17,30.13,10.0,WSW,15.0,-,N/A,,Clear,240,2013-02-17 01:55:00
8:15 PM,52.5,12.2,20,30.14,10.0,SW,9.2,-,N/A,,Clear,220,2013-02-17 02:15:00
8:35 PM,52.0,12.6,21,30.14,10.0,SW,10.4,-,N/A,,Clear,230,2013-02-17 02:35:00
8:55 PM,52.2,12.2,20,30.14,10.0,SW,8.1,-,N/A,,Clear,220,2013-02-17 02:55:00
9:15 PM,44.8,12.6,27,30.14,10.0,South,6.9,-,N/A,,Clear,190,2013-02-17 03:15:00
9:35 PM,43.0,12.2,29,30.14,10.0,SSW,8.1,-,N/A,,Clear,210,2013-02-17 03:35:00
10:15 PM,43.2,13.1,30,30.14,10.0,SSW,8.1,-,N/A,,Clear,210,2013-02-17 04:15:00
10:35 PM,41.5,13.8,32,30.14,10.0,SW,8.1,-,N/A,,Clear,220,2013-02-17 04:35:00
10:55 PM,40.6,13.1,33,30.13,10.0,SW,8.1,-,N/A,,Clear,230,2013-02-17 04:55:00
11:15 PM,39.6,12.9,34,30.13,10.0,SW,5.8,-,N/A,,Clear,220,2013-02-17 05:15:00
11:35 PM,34.3,12.2,40,30.13,10.0,South,4.6,-,N/A,,Clear,180,2013-02-17 05:35:00
11:55 PM,35.8,13.3,40,30.12,10.0,SW,8.1,-,N/A,,Clear,220,2013-02-17 05:55:00